Weather in Hay River

Canada     60°49′48″N   115°46′49″W
temp.,
°C
wind,
m/s
gust,
m/s
humid.,
%
clouds,
%
prec.,
mm/h
press.,
hPa
HPBL,
m
28 july, wed
wed2800:00+12se227487 0.0 101531
03:00+11sse237649 0.0 101559
06:00+12sse378170 0.1 1015174
09:00+15ssw347689 0.2 1015328
12:00+22wsw354779 0.2 10131212
15:00+25wnw47336 0.0 10122502
18:00+26w472817 0.0 10112635
21:00+21sw36445 0.0 1011122
29 july, thu
thu2900:00+16ssw4135219 0.0 1011247
03:00+14sw313586 0.0 1011253
06:00+13wnw2676100 0.2 1013115
09:00+15nne3677100 0.0 1015377
12:00+18n346898 0.0 1017814
15:00+20nnw355465 0.0 10171269
18:00+20n3553100 0.0 1018703
21:00+17n016616 0.0 101911
30 july, fri
fri3000:00+14wsw11756 0.0 102011
03:00+13sw2278100 0.0 102120
06:00+13sw2281100 0.0 102121
09:00+18ssw0163100 0.0 1022188
12:00+23sse234541 0.0 10211072
15:00+26s23386 0.0 10201804
18:00+26s34395 0.0 10181676
21:00+22se38564 0.0 1018223
31 july, sat
sat3100:00+17sse3116544 0.0 1019187
03:00+19ssw41460100 0.0 1018329
06:00+20ssw312567 0.0 1019343
09:00+23ssw411482 0.0 1019398
12:00+28ssw58330 0.0 10181008
15:00+32sw47270 0.0 10162470
18:00+32nnw14240 0.0 10161385
21:00+25ese34491 0.0 101658
1 august, sun
sun100:00+22s37580 0.0 101698
03:00+20ssw311620 0.0 1016176
06:00+19wsw22680 0.0 101745
09:00+24nw12500 0.0 1017240
12:00+30n21358 0.0 1016609
15:00+30nne323498 0.0 1016813
18:00+27ne3340100 0.0 1015209
21:00+22ne23575 0.0 101561